Location: downtown San Diego
(32.7310°N, 117.1990°W)
Time: 18:01:46
(UTC-08:00)

SPOT 5 - Pass Details

Date: 12 July 2018
Orbit: 623 x 815 km, 98.3° (Epoch: 20 November)

Event Time Altitude Azimuth Distance (km) Brightness Sun altitude
Exits shadow 22:54:39 51° 248° (WSW) 1,018 3.6 -28.4°
Maximum altitude 22:54:56 52° 260° (W) 1,010 3.6 -28.4°
Drops below altitude 10° 23:00:08 10° 336° (NNW) 2,396 6.5 -29.0°
Sets 23:02:32 0° 341° (NNW) 3,318 7.5 -29.2°
